Powrót do katalogu

NAVSTAR 63

USA 203

AktywnyNawigacjaHEO
NORAD 34661·PAYLOAD·🇺🇸 United States

Wystrzelony Mar 24, 2009 z Cape Canaveral Space Force Station

Loading…

Następne Przeloty (najbliższe 24 godziny)

TLE

ŚwieżeSource: Space-Track

Epoka: Sep 14, 2026, 13:03 UTC

1 34661U 09014A   26257.54411742  .00000016  00000-0  00000-0 0  9991
2 34661  54.4717 207.0745 0146314  61.6261 117.7774  2.00570113128077

Śledź NAVSTAR 63 w czasie rzeczywistym z AllMySat

Download on the App Store